Weather History for Eastsound, WA

Change the Weather History Date:

Wednesday, February 20, 2013

  Actual Average (KBLI) Record (KBLI)
Temperature  
Mean Temperature 38 °F 41 °F  
Max Temperature 44 °F 49 °F 61 °F (1995)
Min Temperature 32 °F 33 °F 15 °F (1986)
Degree Days  
Heating Degree Days 27 24  
Month to date heating degree days 491  
Cooling Degree Days 0 0  
Month to date cooling degree days 0  
Year to date cooling degree days 0  
Moisture  
Dew Point 37 °F    
Average Humidity 91    
Maximum Humidity 100    
Minimum Humidity 81    
Precipitation  
Precipitation 0.02 in 0.11 in 1.31 in (1984)
Month to date precipitation 2.20  
Year to date precipitation 6.87  
Sea Level Pressure  
Sea Level Pressure 29.99 in    
Wind  
Wind Speed 3 mph (South)    
Max Wind Speed 9 mph    
Max Gust Speed -    
Visibility 9 miles    
Events Rain    
T = Trace of Precipitation, MM = Missing Value Source: NWS Daily Summary

Daily Weather History Graph

Daily Weather History Graph

Search for Another Location

Airport:

Trip Planner

Search our weather history database for the weather conditions in past years. The results will help you decide how hot, cold, wet, or windy it might be!

Date:

Astronomy

Feb. 20, 2013 Rise Set
Actual Time 7:09 AM PST 5:41 PM PST
Civil Twilight 6:37 AM PST 6:13 PM PST
Nautical Twilight 6:01 AM PST 6:50 PM PST
Astronomical Twilight 5:24 AM PST 7:26 PM PST
Moon 12:52 PM PST (2/20) 3:49 AM PST (2/20)
Length of Visible Light 11h 35m
Length of Day
10h 31m
Waxing Gibbous, 77% of the Moon is Illuminated
Feb 20
Waxing Gibbous
Feb 25
Full
Mar 4
Last Quarter
Mar 11
New
Mar 19
First Quarter

Hourly Weather History & Observations

Time (PST) Temp. Windchill Dew Point Humidity Pressure Visibility Wind Dir Wind Speed Gust Speed Precip Events Conditions
12:15 AM 35.6 °F - 33.8 °F 93% 29.98 in 10.0 mi Calm Calm - N/A   Clear
12:35 AM 35.6 °F - 33.8 °F 93% 29.98 in 10.0 mi Calm Calm - N/A   Clear
12:55 AM 33.8 °F - 33.8 °F 100% 29.98 in 10.0 mi Calm Calm - N/A   Clear
1:15 AM 33.8 °F - 33.8 °F 100% 29.98 in 10.0 mi North - - N/A   Clear
1:35 AM 33.8 °F - 32.0 °F 93% 29.99 in 10.0 mi Calm Calm - N/A   Clear
1:55 AM 33.8 °F - 33.8 °F 100% 29.99 in 10.0 mi Calm Calm - N/A   Mostly Cloudy
2:15 AM 33.8 °F - 33.8 °F 100% 30.00 in 10.0 mi North - - N/A   Mostly Cloudy
2:35 AM 33.8 °F - 32.0 °F 93% 30.00 in 10.0 mi Calm Calm - N/A   Scattered Clouds
2:55 AM 32.0 °F - 32.0 °F 100% 30.00 in 10.0 mi Calm Calm - N/A   Partly Cloudy
3:15 AM 33.8 °F - 32.0 °F 93% 30.00 in 10.0 mi Calm Calm - N/A   Clear
3:35 AM 32.0 °F - 32.0 °F 100% 30.00 in 10.0 mi Calm Calm - N/A   Clear
3:55 AM 35.6 °F - 35.6 °F 100% 30.00 in 10.0 mi Calm Calm - N/A   Scattered Clouds
4:15 AM 35.6 °F - 35.6 °F 100% 30.00 in 10.0 mi North - - N/A   Partly Cloudy
4:35 AM 37.4 °F - 35.6 °F 93% 30.00 in 10.0 mi Calm Calm - N/A   Partly Cloudy
5:15 AM 39.2 °F 37.0 °F 37.4 °F 93% 30.00 in 10.0 mi South 3.5 mph - N/A   Overcast
5:35 AM 39.2 °F 35.0 °F 37.4 °F 93% 30.00 in 10.0 mi South 5.8 mph - N/A   Overcast
5:55 AM 39.2 °F 35.9 °F 39.2 °F 100% 30.00 in 10.0 mi South 4.6 mph - N/A   Overcast
6:15 AM 39.2 °F 37.0 °F 39.2 °F 100% 30.00 in 10.0 mi South 3.5 mph - N/A   Overcast
6:35 AM 39.2 °F 35.0 °F 39.2 °F 100% 29.99 in 10.0 mi South 5.8 mph - N/A   Overcast
6:55 AM 41.0 °F 37.1 °F 39.2 °F 93% 29.99 in 10.0 mi South 5.8 mph - N/A   Overcast
7:15 AM 41.0 °F 38.0 °F 39.2 °F 93% 29.99 in 10.0 mi SSE 4.6 mph - N/A   Overcast
7:35 AM 41.0 °F 38.0 °F 39.2 °F 93% 29.98 in 10.0 mi South 4.6 mph - N/A   Overcast
7:55 AM 41.0 °F 36.4 °F 37.4 °F 87% 29.98 in 10.0 mi South 6.9 mph - N/A   Overcast
8:15 AM 41.0 °F 35.2 °F 37.4 °F 87% 29.98 in 10.0 mi South 9.2 mph - N/A   Overcast
8:35 AM 41.0 °F 35.8 °F 37.4 °F 87% 29.99 in 6.0 mi South 8.1 mph - N/A Rain Light Rain
8:55 AM 41.0 °F 39.0 °F 39.2 °F 93% 29.99 in 1.8 mi South 3.5 mph - 0.02 in Rain Rain
9:15 AM 41.0 °F 37.1 °F 39.2 °F 93% 29.99 in 3.0 mi South 5.8 mph - N/A Rain Light Rain
9:35 AM 41.0 °F 38.0 °F 39.2 °F 93% 30.00 in 6.0 mi South 4.6 mph - N/A   Mostly Cloudy
9:55 AM 41.0 °F 38.0 °F 39.2 °F 93% 30.00 in 10.0 mi South 4.6 mph - N/A   Mostly Cloudy
10:15 AM 41.0 °F 38.0 °F 39.2 °F 93% 30.00 in 10.0 mi South 4.6 mph - N/A   Overcast
10:35 AM 41.0 °F 39.0 °F 39.2 °F 93% 30.00 in 10.0 mi South 3.5 mph - N/A   Overcast
10:55 AM 41.0 °F 36.4 °F 39.2 °F 93% 30.00 in 10.0 mi South 6.9 mph - N/A   Overcast
11:15 AM 41.0 °F 35.8 °F 39.2 °F 93% 30.00 in 10.0 mi South 8.1 mph - N/A   Mostly Cloudy
11:35 AM 41.0 °F 36.4 °F 39.2 °F 93% 29.99 in 8.0 mi South 6.9 mph - N/A   Mostly Cloudy
11:55 AM 42.8 °F 38.6 °F 39.2 °F 87% 29.99 in 10.0 mi South 6.9 mph - N/A   Partly Cloudy
12:15 PM 44.6 °F 42.2 °F 39.2 °F 81% 29.98 in 9.0 mi South 4.6 mph - N/A Rain Light Rain
12:55 PM 42.8 °F 38.0 °F 37.4 °F 81% 29.98 in 10.0 mi South 8.1 mph - N/A   Mostly Cloudy
1:15 PM 42.8 °F 40.1 °F 39.2 °F 87% 29.97 in 10.0 mi South 4.6 mph - N/A   Mostly Cloudy
1:35 PM 42.8 °F 39.3 °F 39.2 °F 87% 29.97 in 5.0 mi South 5.8 mph - N/A Rain Light Rain
1:55 PM 41.0 °F 38.0 °F 39.2 °F 93% 29.97 in 6.0 mi South 4.6 mph - N/A Rain Light Rain
2:15 PM 42.8 °F 38.6 °F 39.2 °F 87% 29.97 in 9.0 mi South 6.9 mph - N/A Rain Light Rain
2:35 PM 42.8 °F 40.1 °F 39.2 °F 87% 29.97 in 9.0 mi South 4.6 mph - N/A   Clear
2:55 PM 42.8 °F 39.3 °F 39.2 °F 87% 29.97 in 6.0 mi South 5.8 mph - N/A Rain Light Rain
3:15 PM 42.8 °F 40.1 °F 39.2 °F 87% 29.97 in 5.0 mi South 4.6 mph - N/A Rain Light Rain
3:35 PM 42.8 °F 41.1 °F 39.2 °F 87% 29.97 in 9.0 mi South 3.5 mph - N/A   Clear
4:15 PM 42.8 °F 40.1 °F 39.2 °F 87% 29.97 in 10.0 mi South 4.6 mph - N/A   Overcast
4:35 PM 42.8 °F - 39.2 °F 87% 29.97 in 10.0 mi Calm Calm - N/A   Overcast
4:55 PM 42.8 °F 41.1 °F 39.2 °F 87% 29.97 in 10.0 mi South 3.5 mph - N/A   Overcast
5:15 PM 42.8 °F - 37.4 °F 81% 29.97 in 10.0 mi Calm Calm - N/A   Scattered Clouds
5:35 PM 42.8 °F 38.6 °F 37.4 °F 81% 29.98 in 10.0 mi SSW 6.9 mph - N/A   Partly Cloudy
5:55 PM 41.0 °F - 37.4 °F 87% 29.98 in 10.0 mi Calm Calm - N/A   Clear
6:15 PM 39.2 °F - 37.4 °F 93% 29.98 in 10.0 mi Calm Calm - N/A   Clear
6:35 PM 39.2 °F - 37.4 °F 93% 29.98 in 10.0 mi Calm Calm - N/A   Clear
6:55 PM 39.2 °F - 37.4 °F 93% 29.98 in 10.0 mi Calm Calm - N/A   Clear
7:15 PM 37.4 °F - 37.4 °F 100% 29.99 in 10.0 mi North - - N/A   Clear
7:35 PM 39.2 °F - 37.4 °F 93% 29.99 in 10.0 mi Calm Calm - N/A   Clear
7:55 PM 39.2 °F - 37.4 °F 93% 29.99 in 10.0 mi Calm Calm - N/A   Clear
8:15 PM 39.2 °F - 37.4 °F 93% 30.00 in 10.0 mi Calm Calm - N/A   Mostly Cloudy
8:35 PM 41.0 °F 38.0 °F 37.4 °F 87% 30.00 in 10.0 mi South 4.6 mph - N/A   Overcast
8:55 PM 41.0 °F - 37.4 °F 87% 30.00 in 10.0 mi Calm Calm - N/A   Mostly Cloudy
9:15 PM 41.0 °F - 37.4 °F 87% 30.00 in 10.0 mi North - - N/A   Scattered Clouds
9:35 PM 41.0 °F 37.1 °F 37.4 °F 87% 30.00 in 10.0 mi South 5.8 mph - N/A   Scattered Clouds
9:55 PM 41.0 °F 36.4 °F 37.4 °F 87% 30.01 in 10.0 mi South 6.9 mph - N/A   Scattered Clouds
10:15 PM 41.0 °F 39.0 °F 37.4 °F 87% 30.00 in 10.0 mi SSE 3.5 mph - N/A   Mostly Cloudy
10:35 PM 41.0 °F - 35.6 °F 81% 30.00 in 10.0 mi North - - N/A   Scattered Clouds
10:55 PM 41.0 °F 38.0 °F 35.6 °F 81% 30.00 in 10.0 mi ESE 4.6 mph - N/A   Clear
11:15 PM 41.0 °F - 35.6 °F 81% 29.99 in 10.0 mi Calm Calm - N/A   Partly Cloudy
11:35 PM 41.0 °F 36.4 °F 35.6 °F 81% 29.99 in 10.0 mi South 6.9 mph - N/A   Scattered Clouds
11:55 PM 41.0 °F 39.0 °F 35.6 °F 81% 29.98 in 10.0 mi South 3.5 mph - N/A   Mostly Cloudy